Hourly Data Report for October 05, 2022

TORONTO CITY
ONTARIO
Current Station Operator: ECCC - MSC

43°40'00.000" N
79°24'00.000" W
112.50 m
6158355
71508
XTO

Download Data

Hourly Data (October 2022)
Hourly Data Report for October 5, 2022
TIME
LST
Temp Definition
°C
Dew Point Definition
°C
Rel Hum Definition
%
Precip. Amount Definition
mm

Wind Dir Definition
10's deg

Wind Spd Definition
km/h
Visibility Definition
km
Stn Press Definition
kPa
Hmdx Definition


Wind Chill Definition


Weather Definition


00:00 10.9 5.0 67 0.0       100.58     LegendNANA
01:00 11.0 4.7 65 0.0       100.53     LegendNANA
02:00 11.3 4.3 62 0.0       100.50     LegendNANA
03:00 11.0 4.6 65 0.0       100.44     LegendNANA
04:00 11.2 5.4 67 0.0       100.42     LegendNANA
05:00 10.6 6.6 76 0.0       100.42     LegendNANA
06:00 10.7 7.2 79 0.0       100.48     LegendNANA
07:00 11.4 7.4 77 0.0       100.51     LegendNANA
08:00 13.6 7.0 64 0.0       100.50     LegendNANA
09:00 16.0 8.6 61 0.0       100.51     LegendNANA
10:00 17.7 8.8 56 0.0       100.50     LegendNANA
11:00 18.7 8.9 53 0.0       100.47     LegendNANA
12:00 19.3 8.5 50 0.0       100.44     LegendNANA
13:00 19.0 8.1 49 0.0       100.40     LegendNANA
14:00 19.5 8.1 48 0.0       100.33     LegendNANA
15:00 19.7 4.7 37 0.0       100.28     LegendNANA
16:00 20.7 3.6 33 0.0       100.24     LegendNANA
17:00 19.4 4.5 37 0.0       100.23     LegendNANA
18:00 17.2 6.1 48 0.0       100.24     LegendNANA
19:00 16.9 9.0 60 0.0       100.24     LegendNANA
20:00 16.7 9.9 64 0.0       100.23     LegendNANA
21:00 15.7 10.4 71 0.0       100.22     LegendNANA
22:00 14.9 10.3 74 0.0       100.21     LegendNANA
23:00 15.2 9.9 71 0.0       100.20     LegendNANA

Notes on Data Quality.

Legend

  • E = Estimated
  • M = Missing
  • NA = Not Available*
  • [empty] = Indicates an unobserved value
Date modified: